Karlovy Vary, Czech Republic

7:59 AM CEST on June 25, 2017 (GMT +0200)
Karlovy Vary

Weather History for LKKV - January, 2013

Change the Weather History Date:

Tuesday, January 15, 2013

  Actual Average (EDQM) Record (EDQM)
Temperature  
Mean Temperature 17 °F -  
Max Temperature 24 °F 33 °F 42 °F (2008)
Min Temperature 10 °F 25 °F 10 °F (2013)
Degree Days  
Heating Degree Days 48    
Moisture  
Dew Point 17 °F    
Average Humidity 88    
Maximum Humidity 93    
Minimum Humidity 74    
Precipitation  
Precipitation 0.00 in - - ()
Sea Level Pressure  
Sea Level Pressure 29.70 in    
Wind  
Wind Speed 4 mph ()    
Max Wind Speed 8 mph    
Max Gust Speed -    
Visibility 5.5 miles    
Events Snow    
Averages and records for this station are not official NWS values.
T = Trace of Precipitation, MM = Missing Value Source: Averaged Metar Reports

Daily Weather History Graph

Daily Weather History Graph

Search for Another Location

Airport or City:

Trip Planner

Search our weather history database for the weather conditions in past years. The results will help you decide how hot, cold, wet, or windy it might be!

Date:

Astronomy

Jan. 15, 2013 Rise Set
Actual Time 8:01 AM CET 4:34 PM CET
Civil Twilight 7:24 AM CET 5:11 PM CET
Nautical Twilight 6:44 AM CET 5:51 PM CET
Astronomical Twilight 6:05 AM CET 6:30 PM CET
Moon 9:28 AM CET (1/15) 9:39 PM CET (1/15)
Length of Visible Light 9h 46m
Length of Day
8h 32m
Waxing Crescent, 17% of the Moon is Illuminated
Jan 15
Waxing Crescent
Jan 19
First Quarter
Jan 27
Full
Feb 3
Last Quarter
Feb 10
New

Hourly Weather History & Observations

Time (CET) Temp. Windchill Dew Point Humidity Pressure Visibility Wind Dir Wind Speed Gust Speed Precip Events Conditions
12:00 AM 24.8 °F - 21.2 °F 86% 29.80 in 6.2 mi Variable 1.2 mph - N/A   Mostly Cloudy
1:00 AM 24.8 °F 16.1 °F 19.4 °F 80% 29.80 in 6.2 mi WSW 8.1 mph - N/A   Mostly Cloudy
2:00 AM 21.2 °F 14.9 °F 15.8 °F 80% 29.80 in 6.2 mi SW 4.6 mph - N/A   Partly Cloudy
3:00 AM 23.0 °F 15.8 °F 15.8 °F 74% 29.80 in 6.2 mi West 5.8 mph - N/A   Scattered Clouds
4:00 AM 21.2 °F 14.9 °F 15.8 °F 80% 29.77 in 6.2 mi SW 4.6 mph - N/A   Mostly Cloudy
5:00 AM 15.8 °F - 12.2 °F 86% 29.77 in - East 2.3 mph - N/A   Clear
5:30 AM 14.0 °F 6.5 °F 12.2 °F 93% 29.74 in - East 4.6 mph - N/A   Clear
6:00 AM 14.0 °F 8.2 °F 12.2 °F 93% 29.74 in 6.2 mi East 3.5 mph - N/A   Scattered Clouds
6:30 AM 12.2 °F 6.1 °F 10.4 °F 92% 29.74 in - East 3.5 mph - N/A   Clear
7:00 AM 10.4 °F 2.2 °F 8.6 °F 92% 29.74 in - East 4.6 mph - N/A   Clear
7:30 AM 12.2 °F 4.3 °F 10.4 °F 92% 29.74 in - ESE 4.6 mph - N/A   Clear
8:00 AM 12.2 °F 4.3 °F 8.6 °F 85% 29.74 in - East 4.6 mph - N/A   Clear
8:30 AM 14.0 °F 8.2 °F 12.2 °F 93% 29.74 in - East 3.5 mph - N/A   Clear
9:00 AM 15.8 °F 10.2 °F 12.2 °F 86% 29.74 in 6.2 mi ESE 3.5 mph - N/A   Mostly Cloudy
9:30 AM 17.6 °F 12.3 °F 15.8 °F 93% 29.74 in 6.2 mi ESE 3.5 mph - N/A   Mostly Cloudy
10:00 AM 19.4 °F 11.5 °F 17.6 °F 93% 29.71 in 5.0 mi ESE 5.8 mph - N/A   Mostly Cloudy
11:00 AM 23.0 °F 18.4 °F 19.4 °F 86% 29.71 in 6.2 mi Variable 3.5 mph - N/A   Mostly Cloudy
11:30 AM 21.2 °F 13.6 °F 17.6 °F 86% 29.71 in 6.2 mi East 5.8 mph - N/A   Mostly Cloudy
12:00 PM 21.2 °F 13.6 °F 19.4 °F 93% 29.68 in 6.2 mi NE 5.8 mph - N/A   Overcast
12:30 PM 23.0 °F 17.0 °F 19.4 °F 86% 29.68 in 6.2 mi NE 4.6 mph - N/A   Mostly Cloudy
1:00 PM 23.0 °F 18.4 °F 19.4 °F 86% 29.68 in 6.2 mi NE 3.5 mph - N/A   Mostly Cloudy
1:30 PM 23.0 °F 17.0 °F 19.4 °F 86% 29.65 in 6.2 mi NE 4.6 mph - N/A   Scattered Clouds
2:00 PM 23.0 °F 17.0 °F 19.4 °F 86% 29.65 in 6.2 mi NE 4.6 mph - N/A   Scattered Clouds
2:30 PM 23.0 °F 15.8 °F 19.4 °F 86% 29.65 in 6.2 mi NNE 5.8 mph - N/A   Scattered Clouds
3:00 PM 23.0 °F 17.0 °F 19.4 °F 86% 29.65 in 6.2 mi ENE 4.6 mph - N/A Snow Light Snow
3:30 PM 23.0 °F 15.8 °F 19.4 °F 86% 29.65 in 6.2 mi NE 5.8 mph - N/A   Scattered Clouds
4:00 PM 23.0 °F 17.0 °F 19.4 °F 86% 29.65 in 6.2 mi ENE 4.6 mph - N/A Snow Light Snow
4:30 PM 23.0 °F 15.8 °F 19.4 °F 86% 29.65 in 5.0 mi NE 5.8 mph - N/A Snow Light Snow
5:00 PM 23.0 °F 18.4 °F 19.4 °F 86% 29.65 in 4.3 mi ENE 3.5 mph - N/A Snow Light Snow
5:30 PM 23.0 °F - 19.4 °F 86% 29.65 in 5.0 mi Variable 2.3 mph - N/A Snow Light Snow
6:00 PM 21.2 °F - 19.4 °F 93% 29.65 in 4.3 mi Variable 2.3 mph - N/A Snow Light Snow
6:30 PM 21.2 °F 16.4 °F 19.4 °F 93% 29.65 in 4.3 mi ENE 3.5 mph - N/A   Mostly Cloudy
7:00 PM 21.2 °F 16.4 °F 19.4 °F 93% 29.65 in 5.0 mi NNE 3.5 mph - N/A   Mostly Cloudy
7:30 PM 21.2 °F 16.4 °F 19.4 °F 93% 29.65 in 4.3 mi NNE 3.5 mph - N/A   Mostly Cloudy
8:00 PM 21.2 °F 16.4 °F 19.4 °F 93% 29.65 in 4.3 mi NNE 3.5 mph - N/A   Mostly Cloudy
9:00 PM 21.2 °F - 19.4 °F 93% 29.65 in 3.7 mi Variable 1.2 mph - N/A   Overcast
10:00 PM 21.2 °F 16.4 °F 19.4 °F 93% 29.65 in 3.1 mi SSW 3.5 mph - N/A   Overcast
11:00 PM 21.2 °F 16.4 °F 19.4 °F 93% 29.65 in 3.1 mi WNW 3.5 mph - N/A   Overcast